Regional Weather Roundup
Issued by NWS

Home | Current Version | Previous Version | Text Only | Print | Product List | Glossary Off
Versions: 1 2 3 4 5 6 7 8 9 10 11 12 13 14 15 16 17 18 19 20 21 22 23 24 25 26 27 28 29 30 31 32 33 34 35 36 37 38 39 40 41 42 43 44 45 46 47 48 49 50

000
ASUS43 KMPX 041710
RWRMN
WEATHER ROUNDUP FOR MINNESOTA
NATIONAL WEATHER SERVICE TWIN CITIES/CHANHASSEN MN
1200 PM CDT SAT JUL 04 2015


NOTE: "FAIR" INDICATES FEW OR NO CLOUDS BELOW 12,000 FEET WITH NO
SIGNIFICANT WEATHER AND/OR OBSTRUCTIONS TO VISIBILITY. N/A MEANS
CURRENT SKY AND/OR WEATHER CONDITIONS ARE NOT AVAILABLE.

MNZ060>063-068>070-041800-
   Twin Cities Metro

CITY           SKY/WX    TMP DP  RH WIND       PRES   REMARKS
TWIN CITIES    PTSUNNY   80  64  58 S6        29.94S HAZE
ST PAUL        SUNNY     80  68  66 SE6       29.94S HAZE
CRYSTAL        MOSUNNY   81  64  56 S5        29.92F HAZE
BLAINE         SUNNY     81  66  61 CALM      29.94S HAZE
LAKEVILLE      SUNNY     79  66  65 S5        29.95S
EDEN PRAIRIE   SUNNY     79  67  66 VRB6      29.94S
SOUTH ST PAUL  SUNNY     78  66  64 S5        29.94S
LAKE ELMO      FAIR      79  66  65 CALM      29.96S
$$
MNZ001>005-007-008-013>017-022>024-027-028-041800-
   Northwest Minnesota

CITY           SKY/WX    TMP DP  RH WIND       PRES   REMARKS
BEMIDJI        SUNNY     77  59  54 S9        29.92F
HALLOCK        SUNNY     79  68  69 S14       29.81F HAZE
ROSEAU         SUNNY     79  66  65 S9        29.86S HAZE
WARROAD        SUNNY     75  66  73 S7        29.88S HAZE
THIEF RVR FALL SUNNY     79  64  61 S9        29.87F
CROOKSTON      SUNNY     79  66  65 S14       29.85F HAZE
FOSSTON        SUNNY     75  64  69 S8        29.90S HAZE
DETROIT LAKES  SUNNY     79  63  57 S10       29.92F HAZE
MOORHEAD       SUNNY     79  68  69 S9G16     29.87F HAZE
PARK RAPIDS    CLOUDY    78  59  51 SE10      29.93S HAZE
MAHNOMEN       FAIR      77  64  63 S8        29.89F HAZE
$$
MNZ006-009>011-018-025>026-041800-
   North Central Minnesota

CITY           SKY/WX    TMP DP  RH WIND       PRES   REMARKS
BAUDETTE       SUNNY     76  59  55 S9        29.89F
FLAG ISLAND    SUNNY     72  63  73 S7        29.87R
INTL FALLS     MOSUNNY   76  58  53 VRB7      29.92F
WASKISH        SUNNY     77  61  57 SE6       29.90F
BIG FORK       SUNNY     79  61  53 S7        29.94S
LONGVILLE      SUNNY     77  59  53 S3        29.93F
GRAND RAPIDS   SUNNY     75  55  50 S8        29.95F
CRANE LAKE     MOSUNNY   73  57  56 S3        29.95F
ORR            SUNNY     77  54  44 S6        29.92S
COOK           SUNNY     75  54  46 SE5       29.95F
WALKER         FAIR      76  59  55 S6        29.93S
$$
MNZ012-019>021-037-041800-
   Northeast Minnesota

CITY           SKY/WX    TMP DP  RH WIND       PRES   REMARKS
DULUTH         MOSUNNY   73  59  61 SE8       29.97S
ELY            SUNNY     73  50  43 SE5       29.96F
HIBBING        SUNNY     77  54  44 VRB6      29.95F
DULUTH HARBOR  SUNNY     66  61  82 NE8       29.97F
TWO HARBORS    SUNNY     75  63  64 E8        29.96S
SILVER BAY     SUNNY     72  57  60 E8        29.97S
GRAND MARAIS     N/A     58  52  80 CALM      29.98S
G MARAIS ARPRT MOSUNNY   68  54  60 S5        30.02S
$$
MNZ029>031-032-039>041-046>048-054>057-064-041800-
   West Central Minnesota

CITY           SKY/WX    TMP DP  RH WIND       PRES   REMARKS
FERGUS FALLS   SUNNY     79  66  65 S8        29.89F HAZE
WHEATON        SUNNY     77  64  65 S8        29.90F
MORRIS         SUNNY     81  66  61 S8        29.91F
ALEXANDRIA     SUNNY     78  65  63 S7        29.94F HAZE
ELBOW LAKE     FAIR      78  67  69 S7        29.91F
WADENA         SUNNY     79  63  57 S10       29.92S HAZE
GLENWOOD       SUNNY     79  66  65 S7        29.95S HAZE
APPLETON       SUNNY     84  64  51 S6        29.91F
BENSON         SUNNY     81  66  61 SW3       29.92F
ORTONVILLE     SUNNY     81  64  57 S6        29.90F
MADISON        SUNNY     81  63  54 S8        29.91F
WILLMAR          N/A     79  68  69 SW3       29.95S
$$
MNZ033>034-036-042>043-049>051-058-059-041800-
   Central Minnesota

CITY           SKY/WX    TMP DP  RH WIND       PRES   REMARKS
ST CLOUD       SUNNY     79  65  62 VRB5      29.93F HAZE
SAUK CENTRE    FAIR      78  65  65 SW5       29.94S HAZE
PAYNESVILLE    MOSUNNY   76  65  68 E6        29.94F
AITKIN         SUNNY     79  63  57 S3        29.93S
PINE RIVER       N/A     77  61  57 SE5       29.96F
BRAINERD       MOSUNNY   78  60  53 VRB7      29.94S HAZE
STAPLES        SUNNY     77  61  57 S7        29.93S HAZE
LONG PRAIRIE   CLOUDY    77  63  61 S5        29.94F HAZE
LITTLE FALLS   SUNNY     79  61  53 S6        29.94S HAZE
LITCHFIELD     SUNNY     81  72  74 S3        29.94F
BUFFALO        SUNNY     79  65  61 S5        29.95S
MAPLE LAKE     SUNNY     80  69  69 SE5       29.95S
$$
MNZ037-044-045-052-053-041800-
   East Central Minnesota

CITY           SKY/WX    TMP DP  RH WIND       PRES   REMARKS
PRINCETON      SUNNY     81  66  61 CALM      29.94S HAZE
MORA           SUNNY     77  59  53 S6        29.96S
CAMBRIDGE      SUNNY     82  64  54 E3        29.92S HAZE
RUSH CITY      SUNNY     79  60  52 CALM      29.94S
MOOSE LAKE     SUNNY     77  59  53 CALM      29.93F
HINCKLEY       FAIR      79  61  53 SE3       29.94F
CLOQUET        SUNNY     73  57  56 SE6       29.96F
MCGREGOR       SUNNY     79  55  44 S7        29.95S
$$
MNZ071>073-080-081-089-090-097-098-041800-
   Southwest Minnesota

CITY           SKY/WX    TMP DP  RH WIND       PRES   REMARKS
MONTEVIDEO     PTSUNNY   82  68  61 W3        29.93F
GRANITE FALLS  MOSUNNY   78  67  67 CALM      29.94F
CANBY          SUNNY     79  63  57 S7        29.93F
MARSHALL       SUNNY     79  63  57 S10       29.93
REDWOOD FALLS  PTSUNNY   80  66  62 SW7       29.93F
OLIVIA         MOSUNNY   77  63  61 SW6       29.93F
PIPESTONE      MOSUNNY   75  63  64 SW9       29.96F
WINDOM         SUNNY     79  63  57 SW8       29.97S
WORTHINGTON    SUNNY     75  63  64 SW12      29.98S
JACKSON        SUNNY     77  63  61 SW7       29.98F
TRACY          SUNNY     79  64  60 SW8       29.96S
SLAYTON        SUNNY     76  63  62 CALM      29.98F
$$
MNZ065>067-074>077-082>085-091>093-041800-
   South Central Minnesota

CITY           SKY/WX    TMP DP  RH WIND       PRES   REMARKS
MANKATO        MOSUNNY   77  64  65 CALM      29.96S
NEW ULM        MOSUNNY   79  66  65 SW6       29.95S
ST JAMES       SUNNY     81  66  61 S7        29.97R
FAIRMONT       SUNNY     77  61  57 S8        29.97S
GLENCOE        MOSUNNY   81  71  71 S6        29.94S
FARIBAULT      SUNNY     79  66  65 S7        29.97S
OWATONNA       SUNNY     79  64  61 S6        29.97S
WASECA         SUNNY     77  66  69 S5        29.98F
ALBERT LEA     SUNNY     77  64  65 W3        29.98S
$$
MNZ078>079-086>088-094>096-041800-
   Southeast Minnesota

CITY           SKY/WX    TMP DP  RH WIND       PRES   REMARKS
ROCHESTER      MOSUNNY   78  64  61 VRB6      29.99S
RED WING       SUNNY     79  64  61 SE5       29.95R
STANTON        SUNNY     79  64  61 S5        29.95R
DODGE CENTER   SUNNY     77  64  65 S6        29.98S
WINONA         SUNNY     77  61  57 CALM      29.97S
AUSTIN         SUNNY     79  64  61 SW5       29.98F
PRESTON        SUNNY     76  62  62 S5        30.00S
$$
ABBREVIATIONS USED IN REMARKS
   TC - TEMPERATURES IN CELSIUS
  WCI - WIND CHILL INDEX
   HX - HEAT INDEX
  VSB - VISIBILITY
$$



USA.gov is the U.S. government's official web portal to all federal, state and local government web resources and services.